User: anonymous   Login
Location: Hamburg
(53.5500°N, 10.0000°E)
Time: 13:32:19
(UTC+01:00)
Language:

Courier 1B - Orbit

View from above orbital plane
View from above orbital plane
View from above satellite
View from above satellite

Ground track
Ground track

The orbit data is extracted from the following two-line orbital elements,

1 00058U 60013A   14303.86003554  .00000094  00000-0  13621-4 0  8028
2 00058 028.3279 088.0246 0165078 322.8940 036.0292 13.46283217661797
Epoch (UTC): 30 October 2014 20:38:27
Eccentricity: 0.0165078
inclination: 28.3279°
perigee height: 963 km
apogee height: 1209 km
right ascension of ascending node: 88.0246°
argument of perigee: 322.8940°
revolutions per day: 13.46283217
mean anomaly at epoch: 36.0292°
orbit number at epoch: 66179

The dashed part of the orbit path shows where the satellite is in the earth's shadow,  

DLR